DLH1MG YMML-YSSY

Flight info

Callsign DLH1MG
Flight time 1h 1m
Altitude 35000
Route DOSEL2/34 DOSEL Y59 RIVET
Aircraft A20N/M-SDE2E3FGHIRWXY/LB1

Departure

Time 2026-05-01 12:51
Airport Melbourne Airport (YMML)

Arrival

Time 2026-05-01 13:53
Airport Sydney Kingsford Smith International Airport (YSSY)
Time Latitude Longitude Altitude Speed Heading
2026-05-01 12:33 -37.66904 144.84515 392 ft 0 kts 11°
2026-05-01 12:40 -37.66919 144.84512 391 ft 3 kts 11°
2026-05-01 12:40 -37.66940 144.84506 390 ft 3 kts 11°
2026-05-01 12:40 -37.66962 144.84499 390 ft 3 kts 18°
2026-05-01 12:40 -37.66983 144.84490 389 ft 3 kts 24°
2026-05-01 12:41 -37.67003 144.84478 389 ft 3 kts 25°
2026-05-01 12:41 -37.67023 144.84467 388 ft 3 kts 20°
2026-05-01 12:41 -37.67044 144.84458 388 ft 3 kts 14°
2026-05-01 12:41 -37.67066 144.84452 387 ft 3 kts
2026-05-01 12:42 -37.67088 144.84449 387 ft 3 kts 358°
2026-05-01 12:42 -37.67096 144.84450 386 ft 0 kts 353°
2026-05-01 12:44 -37.67090 144.84449 387 ft 3 kts 350°
2026-05-01 12:44 -37.67059 144.84422 387 ft 7 kts 311°
2026-05-01 12:44 -37.67067 144.84233 384 ft 11 kts 262°
2026-05-01 12:45 -37.67127 144.84049 381 ft 12 kts 192°
2026-05-01 12:45 -37.67229 144.84065 378 ft 18 kts 172°
2026-05-01 12:45 -37.67368 144.84091 374 ft 23 kts 171°
2026-05-01 12:46 -37.67517 144.84119 370 ft 20 kts 172°
2026-05-01 12:46 -37.67637 144.84142 371 ft 17 kts 171°
2026-05-01 12:46 -37.67763 144.84165 364 ft 16 kts 172°
2026-05-01 12:46 -37.67848 144.84173 364 ft 11 kts 191°
2026-05-01 12:47 -37.67871 144.84139 362 ft 4 kts 256°
2026-05-01 12:47 -37.67871 144.84134 366 ft 0 kts 259°
2026-05-01 12:49 -37.67871 144.84133 366 ft 1 kts 259°
2026-05-01 12:49 -37.67879 144.84083 359 ft 12 kts 260°
2026-05-01 12:50 -37.67888 144.84004 356 ft 7 kts 267°
2026-05-01 12:50 -37.67850 144.83961 358 ft 8 kts 348°
2026-05-01 12:50 -37.67777 144.83947 359 ft 18 kts 353°
2026-05-01 12:50 -37.67418 144.83883 370 ft 85 kts 352°
2026-05-01 12:51 -37.66647 144.83740 400 ft 136 kts 351°
2026-05-01 12:51 -37.65661 144.83551 826 ft 145 kts 354°
2026-05-01 12:51 -37.63712 144.83182 2279 ft 132 kts 355°
2026-05-01 12:52 -37.62773 144.82986 2765 ft 142 kts 356°
2026-05-01 12:52 -37.60625 144.83138 3550 ft 180 kts 32°
2026-05-01 12:52 -37.59602 144.84215 4050 ft 205 kts 39°
2026-05-01 12:53 -37.57384 144.87109 5394 ft 246 kts 42°
2026-05-01 12:53 -37.56184 144.88714 6353 ft 256 kts 41°
2026-05-01 12:53 -37.54942 144.90354 7342 ft 262 kts 41°
2026-05-01 12:54 -37.53660 144.92022 8294 ft 269 kts 41°
2026-05-01 12:54 -37.50970 144.95490 10193 ft 284 kts 42°
2026-05-01 12:54 -37.49559 144.97301 10856 ft 301 kts 42°
2026-05-01 12:55 -37.46437 145.01301 11884 ft 336 kts 43°
2026-05-01 12:55 -37.44797 145.03412 12861 ft 338 kts 43°
2026-05-01 12:55 -37.43140 145.05542 13743 ft 343 kts 43°
2026-05-01 12:56 -37.41454 145.07707 14598 ft 347 kts 43°
2026-05-01 12:56 -37.39753 145.09888 15401 ft 352 kts 43°
2026-05-01 12:56 -37.38028 145.12098 16195 ft 356 kts 43°
2026-05-01 12:56 -37.36276 145.14339 16965 ft 361 kts 43°
2026-05-01 12:57 -37.34506 145.16604 17735 ft 366 kts 43°
2026-05-01 12:57 -37.30893 145.21219 19159 ft 375 kts 43°
2026-05-01 12:57 -37.29055 145.23564 19841 ft 378 kts 42°
2026-05-01 12:58 -37.27201 145.25929 20506 ft 382 kts 42°
2026-05-01 12:58 -37.25325 145.28320 21174 ft 386 kts 42°
2026-05-01 12:58 -37.23430 145.30733 21850 ft 390 kts 42°
2026-05-01 12:59 -37.19581 145.35628 23144 ft 398 kts 42°
2026-05-01 12:59 -37.17628 145.38109 23774 ft 402 kts 42°
2026-05-01 12:59 -37.14130 145.43653 24807 ft 413 kts 51°
2026-05-01 13:00 -37.10759 145.49558 25817 ft 420 kts 51°
2026-05-01 13:00 -37.09047 145.52545 26283 ft 424 kts 51°
2026-05-01 13:01 -37.05580 145.58578 27245 ft 430 kts 51°
2026-05-01 13:01 -37.03823 145.61631 27682 ft 434 kts 51°
2026-05-01 13:01 -37.00264 145.67803 28560 ft 440 kts 51°
2026-05-01 13:02 -36.98464 145.70922 28974 ft 444 kts 51°
2026-05-01 13:07 -36.59229 146.38184 35292 ft 456 kts 50°
2026-05-01 13:07 -36.57353 146.41366 35290 ft 457 kts 50°
2026-05-01 13:08 -36.53592 146.47737 35293 ft 457 kts 50°
2026-05-01 13:08 -36.49850 146.54066 35296 ft 458 kts 50°
2026-05-01 13:09 -36.46075 146.60437 35293 ft 458 kts 50°
2026-05-01 13:09 -36.42294 146.66807 35298 ft 458 kts 50°
2026-05-01 13:10 -36.38505 146.73177 35296 ft 459 kts 50°
2026-05-01 13:10 -36.34709 146.79547 35298 ft 459 kts 50°
2026-05-01 13:11 -36.30903 146.85922 35300 ft 460 kts 50°
2026-05-01 13:11 -36.27095 146.92289 35306 ft 460 kts 50°
2026-05-01 13:12 -36.23276 146.98663 35301 ft 460 kts 50°
2026-05-01 13:12 -36.19454 147.05031 35306 ft 461 kts 50°
2026-05-01 13:13 -36.15623 147.11404 35299 ft 461 kts 50°
2026-05-01 13:13 -36.11809 147.17730 35308 ft 462 kts 50°
2026-05-01 13:14 -36.07963 147.24101 35312 ft 462 kts 50°
2026-05-01 13:14 -36.04114 147.30464 35312 ft 463 kts 50°
2026-05-01 13:15 -36.00253 147.36836 35314 ft 463 kts 50°
2026-05-01 13:15 -35.96392 147.43197 35316 ft 463 kts 50°
2026-05-01 13:16 -35.92524 147.49557 35319 ft 463 kts 50°
2026-05-01 13:16 -35.88650 147.55915 35313 ft 464 kts 50°
2026-05-01 13:17 -35.80881 147.68630 35330 ft 464 kts 50°
2026-05-01 13:18 -35.75063 147.78121 35333 ft 465 kts 50°
2026-05-01 13:18 -35.71158 147.84477 35338 ft 466 kts 50°
2026-05-01 13:19 -35.67246 147.90833 35344 ft 466 kts 50°
2026-05-01 13:20 -35.61366 148.00365 35352 ft 467 kts 50°
2026-05-01 13:20 -35.57433 148.06725 35354 ft 467 kts 50°
2026-05-01 13:21 -35.51524 148.16259 35360 ft 468 kts 50°
2026-05-01 13:21 -35.47578 148.22611 35362 ft 468 kts 50°
2026-05-01 13:22 -35.43629 148.28957 35361 ft 468 kts 50°
2026-05-01 13:22 -35.39697 148.35263 35365 ft 469 kts 50°
2026-05-01 13:23 -35.35732 148.41611 35366 ft 469 kts 50°
2026-05-01 13:23 -35.31762 148.47956 35367 ft 470 kts 50°
2026-05-01 13:24 -35.27781 148.54307 35367 ft 470 kts 50°
2026-05-01 13:25 -35.21806 148.63817 35369 ft 470 kts 50°
2026-05-01 13:25 -35.17809 148.70163 35366 ft 471 kts 50°
2026-05-01 13:26 -35.13807 148.76508 35368 ft 472 kts 50°
2026-05-01 13:26 -35.09797 148.82853 35370 ft 472 kts 50°
2026-05-01 13:27 -35.05781 148.89195 35370 ft 473 kts 50°
2026-05-01 13:27 -34.99738 148.98718 35374 ft 473 kts 50°
2026-05-01 13:28 -34.93681 149.08237 35368 ft 474 kts 50°
2026-05-01 13:29 -34.85583 149.20923 33954 ft 479 kts 50°
2026-05-01 13:30 -34.77245 149.33929 29955 ft 491 kts 50°
2026-05-01 13:31 -34.73336 149.40508 28809 ft 475 kts 59°
2026-05-01 13:31 -34.68805 149.50903 27045 ft 454 kts 61°
2026-05-01 13:32 -34.66358 149.56519 26074 ft 444 kts 60°
2026-05-01 13:33 -34.62089 149.66275 24361 ft 429 kts 60°
2026-05-01 13:33 -34.59338 149.72546 23231 ft 417 kts 60°
2026-05-01 13:34 -34.56647 149.78668 22145 ft 405 kts 60°
2026-05-01 13:34 -34.54030 149.84612 21085 ft 395 kts 60°
2026-05-01 13:35 -34.51470 149.90416 20045 ft 386 kts 60°
2026-05-01 13:35 -34.50207 149.93275 19520 ft 383 kts 61°
2026-05-01 13:35 -34.47712 149.98918 18467 ft 377 kts 61°
2026-05-01 13:36 -34.46480 150.01702 17943 ft 372 kts 61°
2026-05-01 13:36 -34.45263 150.04450 17436 ft 368 kts 61°
2026-05-01 13:36 -34.42873 150.09840 16439 ft 360 kts 60°
2026-05-01 13:37 -34.41693 150.12497 15961 ft 356 kts 60°
2026-05-01 13:37 -34.40525 150.15126 15469 ft 353 kts 60°
2026-05-01 13:37 -34.39367 150.17730 14988 ft 350 kts 60°
2026-05-01 13:37 -34.38218 150.20312 14515 ft 347 kts 60°
2026-05-01 13:38 -34.35951 150.25403 13545 ft 340 kts 60°
2026-05-01 13:38 -34.34835 150.27905 13077 ft 335 kts 60°
2026-05-01 13:38 -34.33733 150.30375 12620 ft 332 kts 60°
2026-05-01 13:39 -34.32644 150.32814 12170 ft 328 kts 60°
2026-05-01 13:39 -34.31564 150.35229 11724 ft 325 kts 60°
2026-05-01 13:39 -34.30487 150.37637 11067 ft 328 kts 60°
2026-05-01 13:39 -34.29404 150.40054 10418 ft 332 kts 60°
2026-05-01 13:40 -34.28312 150.42495 10237 ft 318 kts 60°
2026-05-01 13:40 -34.27304 150.44752 10085 ft 301 kts 60°
2026-05-01 13:40 -34.26335 150.46924 9845 ft 289 kts 60°
2026-05-01 13:40 -34.25387 150.49047 9484 ft 285 kts 60°
2026-05-01 13:41 -34.24461 150.51120 9280 ft 275 kts 59°
2026-05-01 13:41 -34.23551 150.53154 9155 ft 277 kts 59°
2026-05-01 13:41 -34.22630 150.55208 8901 ft 279 kts 59°
2026-05-01 13:41 -34.21709 150.57263 8566 ft 277 kts 59°
2026-05-01 13:42 -34.20796 150.59298 8236 ft 273 kts 59°
2026-05-01 13:42 -34.19905 150.61289 8031 ft 264 kts 59°
2026-05-01 13:42 -34.19058 150.63180 7985 ft 247 kts 59°
2026-05-01 13:42 -34.18272 150.64938 7982 ft 229 kts 58°
2026-05-01 13:43 -34.17534 150.66582 7996 ft 223 kts 58°
2026-05-01 13:43 -34.16745 150.68321 7989 ft 241 kts 58°
2026-05-01 13:43 -34.15949 150.70087 7882 ft 238 kts 58°
2026-05-01 13:43 -34.15165 150.71830 7651 ft 235 kts 58°
2026-05-01 13:44 -34.14387 150.73560 7338 ft 234 kts 58°
2026-05-01 13:44 -34.13614 150.75275 7045 ft 232 kts 58°
2026-05-01 13:44 -34.12847 150.76978 6747 ft 230 kts 58°
2026-05-01 13:44 -34.12085 150.78667 6419 ft 229 kts 58°
2026-05-01 13:45 -34.11321 150.80354 6074 ft 229 kts 58°
2026-05-01 13:45 -34.10558 150.82036 5748 ft 228 kts 57°
2026-05-01 13:45 -34.09652 150.83549 5612 ft 216 kts 46°
2026-05-01 13:45 -34.08646 150.84820 5508 ft 203 kts 45°
2026-05-01 13:46 -34.07703 150.86022 5411 ft 191 kts 45°
2026-05-01 13:46 -34.06818 150.87162 5319 ft 182 kts 45°
2026-05-01 13:46 -34.05962 150.88266 5077 ft 180 kts 46°
2026-05-01 13:46 -34.05106 150.89368 4825 ft 180 kts 46°
2026-05-01 13:47 -34.04263 150.90452 4584 ft 179 kts 46°
2026-05-01 13:47 -34.03410 150.91548 4318 ft 179 kts 46°
2026-05-01 13:47 -34.02559 150.92641 4078 ft 178 kts 46°
2026-05-01 13:47 -34.01710 150.93732 3829 ft 178 kts 46°
2026-05-01 13:48 -34.00864 150.94817 3581 ft 177 kts 46°
2026-05-01 13:48 -34.00021 150.95900 3331 ft 178 kts 46°
2026-05-01 13:48 -33.99226 150.97019 3183 ft 173 kts 55°
2026-05-01 13:48 -33.98651 150.98352 3031 ft 182 kts 68°
2026-05-01 13:49 -33.98267 150.99796 2821 ft 181 kts 73°
2026-05-01 13:49 -33.97945 151.01242 2631 ft 174 kts 72°
2026-05-01 13:49 -33.97622 151.02605 2383 ft 162 kts 72°
2026-05-01 13:49 -33.97330 151.03849 2173 ft 147 kts 72°
2026-05-01 13:50 -33.97065 151.04972 1992 ft 132 kts 72°
2026-05-01 13:50 -33.96825 151.05987 1820 ft 125 kts 71°
2026-05-01 13:50 -33.96585 151.06997 1655 ft 125 kts 72°
2026-05-01 13:50 -33.96349 151.07998 1488 ft 125 kts 71°
2026-05-01 13:51 -33.96110 151.09008 1326 ft 125 kts 72°
2026-05-01 13:51 -33.95873 151.10011 1177 ft 124 kts 72°
2026-05-01 13:51 -33.95628 151.11009 1004 ft 124 kts 72°
2026-05-01 13:51 -33.95382 151.12015 814 ft 128 kts 73°
2026-05-01 13:52 -33.95155 151.13045 643 ft 127 kts 73°
2026-05-01 13:52 -33.94907 151.14078 475 ft 129 kts 71°
2026-05-01 13:52 -33.94670 151.15112 295 ft 128 kts 71°
2026-05-01 13:52 -33.94421 151.16147 120 ft 130 kts 72°
2026-05-01 13:53 -33.94181 151.17179 29 ft 122 kts 71°
2026-05-01 13:53 -33.93943 151.18182 29 ft 16 kts 75°
2026-05-01 13:53 -33.93906 151.18276 29 ft 12 kts 20°
2026-05-01 13:54 -33.93827 151.18259 29 ft 12 kts 344°
2026-05-01 13:54 -33.93772 151.18239 30 ft 8 kts 343°
2026-05-01 13:54 -33.93745 151.18180 30 ft 10 kts 257°
2026-05-01 13:54 -33.93757 151.18089 30 ft 12 kts 289°
2026-05-01 13:55 -33.93695 151.18053 30 ft 11 kts 351°
2026-05-01 13:55 -33.93619 151.18053 30 ft 9 kts
2026-05-01 13:55 -33.93564 151.18060 30 ft 8 kts 10°
2026-05-01 13:55 -33.93525 151.18061 30 ft 5 kts 335°
2026-05-01 13:56 -33.93514 151.18025 30 ft 4 kts 285°
2026-05-01 13:56 -33.93509 151.18005 30 ft 2 kts 288°
2026-05-01 13:56 -33.93507 151.17998 30 ft 1 kts 289°